Weather History for KSEE - October, 2012

Change the Weather History Date:

Tuesday, October 9, 2012

  Actual Average Record
Temperature  
Mean Temperature 70 °F -  
Max Temperature 77 °F 80 °F 98 °F (1991)
Min Temperature 64 °F 54 °F 46 °F (1998)
Cooling Degree Days 6    
Growing Degree Days 20 (Base 50)    
Moisture  
Dew Point 56 °F    
Average Humidity 72    
Maximum Humidity 77    
Minimum Humidity 41    
Precipitation  
Precipitation 0.00 in - - ()
Sea Level Pressure  
Sea Level Pressure 30.00 in    
Wind  
Wind Speed 3 mph (West)    
Max Wind Speed 8 mph    
Max Gust Speed -    
Visibility 11 miles    
Events      
Averages and records for this station are not official NWS values.
T = Trace of Precipitation, MM = Missing Value Source: NWS Daily Summary

Daily Weather History Graph

Daily Weather History Graph

Search for Another Location

Airport or City:

Trip Planner

Search our weather history database for the weather conditions in past years. The results will help you decide how hot, cold, wet, or windy it might be!

Date:

Astronomy

Oct. 09, 2012 Rise Set
Actual Time 6:48 AM PDT 6:21 PM PDT
Civil Twilight 6:23 AM PDT 6:46 PM PDT
Nautical Twilight 5:54 AM PDT 7:14 PM PDT
Astronomical Twilight 5:26 AM PDT 7:43 PM PDT
Moon 12:47 AM PDT (10/9) 2:34 PM PDT (10/9)
Length of Visible Light 12h 22m
Length of Day
11h 33m
Waning Crescent, 35% of the Moon is Illuminated
Oct 9
Waning Crescent
Oct 15
New
Oct 21
First Quarter
Oct 29
Full
Nov 6
Last Quarter

Hourly Weather History & Observations

Time (PDT) Temp. Dew Point Humidity Pressure Visibility Wind Dir Wind Speed Gust Speed Precip Events Conditions
12:15 AM 64.4 °F 57.2 °F 77% 30.00 in 10.0 mi West 4.6 mph - N/A   Overcast
12:35 AM 64.4 °F 57.2 °F 77% 30.01 in 10.0 mi WNW 4.6 mph - N/A   Overcast
12:55 AM 64.4 °F 57.2 °F 77% 30.00 in 10.0 mi Calm Calm - N/A   Overcast
1:15 AM 64.4 °F 57.2 °F 77% 30.00 in 10.0 mi Calm Calm - N/A   Overcast
1:35 AM 64.4 °F 57.2 °F 77% 30.00 in 10.0 mi North 3.5 mph - N/A   Overcast
1:55 AM 64.4 °F 57.2 °F 77% 30.00 in 10.0 mi ENE 3.5 mph - N/A   Overcast
2:15 AM 64.4 °F 57.2 °F 77% 30.00 in 10.0 mi East 3.5 mph - N/A   Overcast
2:35 AM 64.4 °F 57.2 °F 77% 29.99 in 10.0 mi Calm Calm - N/A   Overcast
2:55 AM 64.4 °F 57.2 °F 77% 29.99 in 10.0 mi WSW 3.5 mph - N/A   Overcast
3:15 AM 64.4 °F 57.2 °F 77% 29.99 in 10.0 mi WNW 3.5 mph - N/A   Overcast
3:35 AM 64.4 °F 57.2 °F 77% 29.99 in 10.0 mi West 4.6 mph - N/A   Overcast
3:55 AM 64.4 °F 57.2 °F 77% 29.99 in 10.0 mi WNW 3.5 mph - N/A   Overcast
4:15 AM 64.4 °F 57.2 °F 77% 29.98 in 10.0 mi NW 3.5 mph - N/A   Overcast
4:35 AM 64.4 °F 57.2 °F 77% 29.99 in 10.0 mi Calm Calm - N/A   Overcast
4:55 AM 64.4 °F 57.2 °F 77% 29.99 in 10.0 mi Calm Calm - N/A   Overcast
5:15 AM 64.4 °F 57.2 °F 77% 29.99 in 10.0 mi Calm Calm - N/A   Overcast
5:55 AM 64.4 °F 53.6 °F 68% 29.99 in 10.0 mi SE 4.6 mph - N/A   Overcast
6:15 AM 64.4 °F 53.6 °F 68% 29.99 in 10.0 mi Calm Calm - N/A   Overcast
6:47 AM 64.4 °F 55.4 °F 73% 29.99 in 10.0 mi Calm Calm - N/A   Overcast
7:47 AM 64.4 °F 55.4 °F 73% 30.01 in 10.0 mi East 5.8 mph - N/A   Overcast
10:47 AM 71.6 °F 53.6 °F 53% 30.01 in 20.0 mi Calm Calm - N/A   Partly Cloudy
11:55 AM 77.0 °F 51.8 °F 41% 29.98 in 20.0 mi Variable 5.8 mph - N/A   Clear
4:47 PM 75.2 °F 55.4 °F 50% 29.94 in 25.0 mi WSW 8.1 mph - N/A   Partly Cloudy
7:55 PM 64.4 °F 57.2 °F 77% 29.99 in 12.0 mi Variable 6.9 mph - N/A   Mostly Cloudy
8:47 PM 64.4 °F 57.2 °F 77% 29.99 in 12.0 mi Variable 6.9 mph - N/A   Overcast
9:15 PM 64.4 °F 55.4 °F 73% 30.01 in 10.0 mi West 4.6 mph - N/A   Overcast
9:35 PM 64.4 °F 55.4 °F 73% 30.01 in 10.0 mi WNW 3.5 mph - N/A   Overcast
9:55 PM 64.4 °F 55.4 °F 73% 30.01 in 10.0 mi Calm Calm - N/A   Overcast
10:15 PM 64.4 °F 55.4 °F 73% 30.01 in 10.0 mi West 3.5 mph - N/A   Overcast
10:55 PM 64.4 °F 55.4 °F 73% 30.00 in 10.0 mi SW 3.5 mph - N/A   Overcast
11:15 PM 64.4 °F 55.4 °F 73% 30.00 in 10.0 mi Calm Calm - N/A   Overcast
11:35 PM 64.4 °F 55.4 °F 73% 30.00 in 10.0 mi Calm Calm - N/A   Overcast
11:55 PM 64.4 °F 53.6 °F 68% 30.01 in 10.0 mi West 4.6 mph - N/A   Overcast